Main page
METAR-TAF:

METAR-TAF

Airports :

Kullu–Manali Airport

Kullu / Manali, India

latitude: 31-52-36N, longitude: 77-09-16E, elevation: 1089 m

Current weather observation

The report was made 6 hours and 38 minutes ago, at 06:30 UTC
Calm wind
Temperature 15°C
Humidity 41%
Pressure 1021 hPa
Visibility: 6000 m
haze

METAR: VIBR 210630Z 00000KT 6000 HZ NSC 15/02 Q1021

Time: 18:38 (13:08 UTC)


TAF: missing

Weather observations and forecasts of more than 4000 airports (METAR and TAF reports).

The available stations are represented by yellow and red dots on the map.

Hover mouse over dot to see the name of the station.

Then click to see weather observations and forecasts.

To change the map : click on the green buttons with a black cross to zoom in, on the green button with a dash to zoom out, or on the green arrows for adjacent maps.


METAR-TAF: